Terminal Aerodrome Forecast
Issued by NWS

Current Version | Previous Version | Graphics & Text | Print | Product List | Glossary On
Versions: 1 2 3 4 5 6 7 8 9 10 11 12 13 14 15 16 17 18 19 20 21 22 23 24 25 26 27 28 29 30 31 32 33 34 35 36 37 38 39 40 41 42 43 44 45 46 47 48
243
FTUS41 KRNK 271724
TAFLWB
TAF
KLWB 271724Z 2718/2818 26004KT P6SM VCTS SCT035CB BKN100
     FM272000 28005KT P6SM VCTS BKN040CB
     FM280200 00000KT P6SM BKN090
     FM280600 00000KT 1/4SM FG OVC001
     FM281400 26005KT P6SM BKN070=

USA.gov is the U.S. government's official web portal to all federal, state and local government web resources and services.